Location: Baldovin
(46.2000°N, 22.7167°E)
Time: 01:39:04
(UTC+00:00)

Daily predictions for brighter satellites

Satellite Brightness Start Highest point End
(mag) Time Altitude Azimuth Time Altitude Azimuth Time Altitude Azimuth
ATLAS 5 CENTAUR R/B 4.5 00:16:04 14° N 00:16:04 14° N 00:17:10 10° NNE
ADEOS II 3.6 00:34:20 10° NNE 00:37:24 34° NE 00:37:24 34° NE
USA 234 4.2 00:34:32 10° E 00:40:35 42° NNE 00:43:28 28° NNW
IDEFIX/ARIANE 42P 4.4 00:37:13 10° NE 00:41:25 24° E 00:41:36 24° E
SJ 16-02 4.3 00:39:09 10° N 00:39:20 11° N 00:39:20 11° N
Cosmos 1238 Rocket 4.4 00:48:16 10° N 00:54:28 57° ENE 00:54:28 57° ENE
Cosmos 1697 Rocket 3.9 00:59:13 35° N 00:59:13 35° N 01:02:42 10° NNE
Cosmos 1980 Rocket 2.8 01:05:33 51° NNE 01:05:33 51° NNE 01:09:44 10° NNE
Cosmos 2263 Rocket 3.4 01:00:43 10° NNW 01:03:49 33° NNW 01:03:49 33° NNW
ASTEX 1 4.3 01:07:44 10° NNE 01:11:56 48° ENE 01:11:56 48° ENE
Cosmos 2322 Rocket 3.6 01:12:30 28° SE 01:13:43 31° ESE 01:18:40 10° NE
Cosmos 1898 Rocket 4.5 01:11:15 10° N 01:16:19 45° ENE 01:21:22 10° SE
Lacrosse 5 3.1 01:22:28 34° N 01:22:28 34° N 01:26:26 10° NE
IRS-1C 4.3 01:19:21 10° NNE 01:23:58 67° NNE 01:23:58 67° NNE
SL-16 R/B 2.9 01:24:45 44° SE 01:25:33 47° ESE 01:30:58 10° NE
Cosmos 921 Rocket 4.4 01:28:18 34° NNE 01:28:18 34° NNE 01:30:45 10° NNE
Resurs 1-4 Rocket 3.9 01:24:42 10° N 01:26:57 20° NNW 01:26:57 20° NNW
Cosmos 1812 4.4 01:33:08 32° NE 01:33:08 32° NE 01:35:26 10° NNE
USA 307 4.5 01:32:42 30° NNE 01:32:42 30° NNE 01:35:43 10° NE
USA 308 4.4 01:35:56 31° N 01:35:56 31° N 01:39:06 10° NE
CZ-2D R/B 3.9 01:31:22 10° N 01:33:36 19° NNW 01:33:36 19° NNW
Cosmos 1937 Rocket 4.4 01:30:59 10° NNW 01:35:58 47° ENE 01:40:54 10° SE
NOSS 3-4 (A) 4.2 01:36:27 10° NW 01:43:20 63° NE 01:50:58 10° SE
NOSS 3-4 (C) 4.2 01:36:34 10° NW 01:43:26 63° NE 01:51:04 10° SE
CZ-4C R/B 4.5 01:46:23 37° ENE 01:46:23 37° ENE 01:49:22 10° N
Cosmos 1763 Rocket 3.8 01:45:12 52° SSE 01:46:13 63° ESE 01:51:27 10° NNE
USA 267 3.2 01:41:18 10° NE 01:47:52 75° SE 01:49:37 51° SSW
Cosmos 1536 4.4 01:44:52 10° N 01:48:39 35° ENE 01:52:24 10° SE
ARIANE 5 R/B 2.4 01:45:17 10° N 01:50:05 70° NW 01:50:05 70° NW
CZ-2D R/B 3.8 01:47:04 10° NNE 01:50:45 65° NNE 01:50:45 65° NNE
ADEOS Rocket 4.4 01:45:29 10° SE 01:51:24 38° ENE 01:56:48 10° N
NOSS 3-3 (A) 3.9 01:51:32 60° W 01:52:23 67° NW 01:59:05 10° NE
NOSS 3-3 (C) 3.9 01:51:39 60° W 01:52:29 67° NW 01:59:10 10° NE
Cosmos 1707 Rocket 4.3 01:55:16 36° SE 01:56:36 50° E 02:00:50 10° NNE
Meteor 1-5 Rocket 3.9 01:53:30 10° NNW 01:58:50 74° W 02:00:06 53° SSW
Cosmos 1934 Rocket 4.4 01:54:04 10° NNW 01:58:47 41° WNW 01:58:47 41° WNW
ATLAS 5 CENTAUR R/B 4.4 01:58:45 10° NNW 02:00:14 11° N 02:01:46 10° NNE
Cosmos 540 Rocket 4.4 01:59:02 21° SSE 02:02:08 44° ESE 02:07:03 10° NNE
MSX 3.8 01:56:48 10° NNE 02:02:37 80° ESE 02:05:30 31° S
Gbstr 26 Del rocket 4.5 02:03:39 37° W 02:06:39 55° SW 02:13:48 10° SSE
ATLAS 2AS CENTAUR R/B 3.0 01:59:37 10° NW 02:07:11 71° NE 02:14:06 10° SE
ERS-2 3.7 02:04:10 10° SE 02:07:31 35° ENE 02:10:53 10° N
Cosmos 44 Rocket 3.9 02:06:03 36° S 02:07:35 51° ESE 02:12:17 10° NE
CZ-4B R/B 4.4 02:05:32 10° ESE 02:07:47 18° ENE 02:10:03 10° NNE
IRIDIUM 106 4.2 02:03:04 10° N 02:08:20 86° W 02:11:35 24° S
Cosmos 44 4.4 02:08:32 27° NW 02:08:32 27° NW 02:12:28 10° NNE
Cosmos 990 Rocket 3.9 02:05:13 10° NNW 02:10:21 61° WSW 02:15:29 10° S
Cosmos 1733 Rocket 4.0 02:06:19 10° N 02:10:32 47° ENE 02:14:41 10° SSE
Meteor 1-10 Rocket 4.2 02:09:13 41° SSW 02:11:20 75° WNW 02:17:16 10° N
Meteor 2-6 Rocket 4.3 02:10:06 49° SW 02:11:23 61° WNW 02:17:14 10° N
ADEOS II 3.4 02:14:46 10° N 02:18:20 23° NW 02:18:20 23° NW
Landsat 5 3.5 02:14:30 10° SSE 02:19:01 86° WSW 02:23:29 10° NNW
Cosmos 468 Rocket 4.0 02:19:42 47° WSW 02:20:59 61° WNW 02:26:13 10° NNE
IDEFIX/ARIANE 42P 2.8 02:16:11 10° N 02:21:17 51° WNW 02:22:24 43° WSW
Cosmos 1570 Rocket 4.4 02:18:01 20° S 02:21:43 65° ESE 02:27:02 10° NNE
Cosmos 967 Rocket 4.4 02:19:11 33° SW 02:22:18 88° NW 02:28:45 10° NE
SL-4 R/B 2.2 02:21:54 56° WSW 02:22:52 81° NNW 02:27:39 10° ENE
USA 234 3.2 02:16:39 10° ESE 02:23:12 86° NE 02:29:47 10° NW
CZ-2C R/B 2.6 02:19:35 10° N 02:23:23 66° WNW 02:23:31 65° W
PSLV R/B 3.9 02:21:14 10° NNE 02:25:25 62° ESE 02:28:45 15° S
CZ-4C R/B 4.0 02:20:17 10° NNW 02:26:57 45° NE 02:34:39 10° ESE
USA 276 2.2 02:30:55 65° NNW 02:31:12 71° NNE 02:34:24 10° ESE
Cosmos 1862 Rocket 4.1 02:27:09 10° S 02:31:26 58° E 02:35:43 10° NNE
CSL-04 DEB 4.5 02:28:09 10° S 02:32:27 66° WSW 02:36:50 10° NNW
Cosmos 2228 Rocket 4.3 02:33:13 25° NW 02:33:13 25° NW 02:36:13 10° NNW
Cosmos 1605 Rocket 4.5 02:28:27 10° NNW 02:34:17 39° W 02:37:19 25° SW
COSMOS 2441 4.4 02:30:04 10° N 02:34:55 59° WNW 02:37:12 30° SW
H-2A R/B 2.1 02:32:27 10° S 02:36:48 59° WSW 02:41:16 10° NNW
ALOS 4.1 02:33:28 10° NNE 02:37:40 32° E 02:41:50 10° SSE
Cosmos 2360 Rocket 2.3 02:33:12 16° SSW 02:37:47 77° ESE 02:43:28 10° NNE
USA 305 4.5 02:36:27 18° NW 02:38:42 28° N 02:42:24 10° ENE
Cosmos 2016 Rocket 4.3 02:36:55 10° N 02:43:01 68° E 02:49:05 10° SSE
USA 306 4.5 02:40:43 17° NW 02:43:10 28° N 02:46:52 10° ENE
CZ-2C R/B 2.5 02:39:32 10° NNE 02:44:45 89° W 02:49:57 10° SSW
Meteor 1-4 Rocket 3.9 02:46:55 23° NW 02:46:55 23° NW 02:49:10 10° NNW
Cosmos 1000 Rocket 4.4 02:40:34 10° S 02:46:45 88° WNW 02:52:56 10° N
Cosmos 372 Rocket 3.9 02:42:12 10° NNW 02:47:23 89° WSW 02:52:29 10° SSE
ATLAS CENTAUR R/B 3.6 02:37:47 10° NW 02:47:34 52° NNE 02:51:28 10° E
Cosmos 1980 Rocket 3.8 02:47:19 16° WNW 02:48:57 18° NW 02:52:43 10° N
Cosmos 2061 Rocket 4.3 02:43:05 10° N 02:49:33 76° E 02:55:58 10° SSE
Cosmos 1844 Rocket 2.6 02:48:53 10° NNW 02:54:33 82° WSW 03:00:12 10° SSE
Cosmos 2322 Rocket 2.6 02:54:20 23° WSW 02:57:34 45° WNW 03:03:04 10° NNE
Cosmos 1898 Rocket 4.4 02:53:47 10° NW 02:58:08 27° W 03:02:30 10° SSW
Cosmos 1484 Rocket 3.8 02:54:14 10° NNE 02:58:08 49° E 03:02:02 10° S
Cosmos 2278 Rocket 4.3 02:54:04 10° N 02:58:55 28° NE 03:03:44 10° ESE
Cosmos 1666 4.0 02:56:47 10° NW 02:59:07 22° WNW 02:59:07 22° WNW
Meteor 1-11 Rocket 4.3 02:56:52 10° NNW 03:02:01 35° W 03:07:02 10° SSW
Cosmos 1844 3.6 02:57:30 10° NNW 03:03:06 85° WSW 03:08:40 10° SSE
X-37B 3.0 03:04:31 11° SSW 03:04:31 11° SSW 03:04:58 10° S
Cosmos 1725 Rocket 4.1 02:59:27 10° N 03:05:40 83° E 03:11:51 10° S
Lacrosse 5 3.6 03:01:49 10° NW 03:05:54 24° N 03:10:00 10° NE
Okean 1 3.4 03:05:19 10° S 03:09:21 82° E 03:13:25 10° N
SL-16 R/B 3.1 03:06:39 19° WSW 03:09:51 32° NW 03:14:55 10° NNE
Meteor 1-27 Rocket 4.2 03:05:04 11° SW 03:10:25 42° WNW 03:15:59 10° N
COSMO-SKYMED 1 3.9 03:06:31 10° SE 03:10:38 43° ENE 03:14:46 10° N
Intercosmos 25 2.9 03:06:55 10° S 03:10:38 86° W 03:13:49 10° N
Meteor 1-31 Rocket 3.5 03:07:15 10° NNE 03:11:02 54° E 03:14:50 10° S
Cosmos 2298 Rocket 4.0 03:06:18 10° NNW 03:11:39 82° WSW 03:16:56 10° SSE
USA 307 4.4 03:08:57 10° NW 03:12:43 30° N 03:16:30 10° ENE
ERBS 4.5 03:12:22 11° NW 03:14:17 17° NNW 03:16:32 10° NNE
Cosmos 2100 Rocket 4.3 03:08:23 10° NNW 03:14:26 47° W 03:20:26 10° SSW
USA 308 4.4 03:12:20 10° NW 03:16:08 30° N 03:19:55 10° ENE
Cosmos 1437 Rocket 2.6 03:12:35 10° SSW 03:16:23 69° WNW 03:20:15 10° N
deb Chang Zheng 4 3.5 03:12:09 10° NNE 03:16:27 86° WNW 03:20:43 10° SSW
Cosmos 1937 Rocket 4.4 03:13:32 10° NW 03:17:36 24° W 03:21:40 10° SSW
Cosmos 1459 Rocket 4.2 03:12:52 10° NNW 03:18:36 45° W 03:24:18 10° SSW
Cosmos 2237 4.5 03:13:42 12° SW 03:18:55 51° WNW 03:24:29 10° NNE
FALCON 9 DEB 4.3 03:20:10 15° WNW 03:22:32 32° NNW 03:25:41 10° NE
Cosmos 841 Rocket 4.0 03:18:30 12° SW 03:23:07 40° WNW 03:28:05 10° N
Cosmos 1782 Rocket 4.2 03:19:55 10° N 03:24:22 61° ENE 03:28:47 10° SSE
Cosmos 1802 Rocket 4.2 03:18:44 10° NNW 03:24:43 51° W 03:30:45 10° SSW
SJ-6F 4.5 03:20:43 10° N 03:24:45 58° WNW 03:28:44 10° SSW
Cosmos 1536 4.2 03:21:50 10° NW 03:24:49 20° W 03:27:47 10° SW
Cosmos 1908 Rocket 3.5 03:21:10 10° NNW 03:25:39 74° W 03:30:05 10° S
Cosmos 2219 Rocket 2.6 03:20:06 10° SSW 03:25:43 69° ESE 03:31:24 10° NNE
Cosmos 2208 Rocket 4.4 03:22:35 10° SW 03:27:34 44° WNW 03:32:33 10° N
Cosmos 1703 Rocket 3.6 03:23:23 10° S 03:27:43 82° E 03:32:05 10° N
ARIANE 5 R/B 4.4 03:26:52 10° NW 03:28:32 12° NW 03:30:11 10° WNW
Okean 1-7 3.2 03:24:24 10° S 03:28:37 76° E 03:32:53 10° NNE
Cosmos 1814 Rocket 4.4 03:24:15 10° SW 03:29:13 44° WNW 03:34:18 10° N
USA 267 3.8 03:24:27 10° NE 03:30:41 48° NNW 03:36:54 10° W
Cosmos 1125 Rocket 3.5 03:25:46 10° NNW 03:31:05 88° WSW 03:36:20 10° SSE
Meteor 2-4 Rocket 4.4 03:27:21 10° S 03:32:39 56° E 03:37:54 10° NNE
CZ-4B R/B 3.4 03:30:23 10° NNE 03:33:57 56° E 03:37:28 10° S
NOSS 3-4 (A) 4.4 03:27:43 10° NW 03:34:05 36° WSW 03:40:59 10° S
NOSS 3-4 (C) 4.4 03:27:48 10° NW 03:34:11 36° WSW 03:41:08 10° S
Cosmos 2123 Rocket 4.0 03:29:13 10° SSW 03:35:24 63° WNW 03:41:42 10° N
ADEOS Rocket 3.5 03:30:45 10° SSW 03:36:53 40° W 03:42:31 10° NNW
CZ-4B R/B 4.1 03:34:07 10° N 03:38:31 74° WNW 03:42:59 10° SSW
Cosmos 2150 Rocket 4.2 03:33:54 10° NNW 03:39:12 53° WSW 03:44:24 10° S
CZ-4B R/B 2.2 03:37:03 10° SSW 03:39:51 27° W 03:42:44 10° NW
ERS-2 3.6 03:38:40 10° SW 03:41:11 18° W 03:43:43 10° NW
Cosmos 540 Rocket 4.5 03:39:30 10° WSW 03:43:55 28° WNW 03:48:22 10° N
Cosmos 2237 Rocket 4.1 03:40:27 10° S 03:45:29 34° ESE 03:50:32 10° NE
ATLAS 5 CENTAUR R/B 4.4 03:43:37 10° NNW 03:47:05 17° NNE 03:50:52 10° ENE
Cosmos 1733 Rocket 4.5 03:45:07 10° NW 03:47:55 17° W 03:50:43 10° SW
COSMOS 2428 2.8 03:42:40 10° SSW 03:48:23 88° ESE 03:54:10 10° NNE
Cosmos 44 Rocket 4.4 03:45:12 10° W 03:49:22 29° NW 03:53:38 10° NNE
Cosmos 1544 3.8 03:46:22 10° NNW 03:49:33 30° W 03:52:44 10° SSW
Cosmos 1743 3.9 03:47:47 10° NW 03:50:47 22° W 03:53:46 10° SW
METEOR-M 4.2 03:47:10 10° N 03:52:29 65° WNW 03:57:45 10° SSW
ADEOS 4.0 03:50:39 10° N 03:55:31 41° WNW 04:00:23 10° SW
RESURS DK-1 3.3 03:51:26 10° NNW 03:55:32 53° ENE 03:59:37 10° SE
Meteor PRIRODA 3.6 03:51:54 10° NNE 03:55:36 90° W 03:59:13 10° SSW
Meteor 2-11 Rocket 4.4 03:49:30 10° NNW 03:55:38 73° W 04:01:42 10° S
Cosmos 2333 Rocket 2.3 03:51:44 10° SW 03:57:28 66° WNW 04:03:14 10° NNE
ATLAS 2AS CENTAUR R/B 3.6 03:51:27 10° NW 03:57:30 29° WSW 04:03:10 10° SSW
